Location: Beaver Brook Trail
(44.0290°N, 71.8137°W)
Time: 02:40:46
(UTC+00:00)

Altair - Pass Details

Date: 14 November 2024
Orbit: 1501 x 1683 km, 47.2° (Epoch: 03 December)

Event Time Altitude Azimuth Distance (km) Brightness Sun altitude
Rises 22:34:00 0° 291° (WNW) 4,642 11.0 -13.1°
Reaches altitude 10° 22:37:47 10° 278° (W) 3,669 10.7 -13.8°
Maximum altitude 22:44:29 23° 231° (SW) 2,806 9.7 -15.0°
Drops below altitude 10° 22:51:18 10° 183° (S) 3,734 9.7 -16.2°
Sets 22:55:14 0° 170° (S) 4,745 10.1 -16.9°
